This is the latest recevied weather packets stored in our database for station/object NE8U. If no packets are shown the sender has not sent any weather packets the latest 10 day(s).
| Time | Temp. | Humidity | Pressure | Rain* | Wind** | Luminosity | Snow |
|---|---|---|---|---|---|---|---|
| 1777847468 | 33.33° C | 16% | 1011.3 hPa | 0 mm | - | 507 W/m² | - |
| 1777847166 | 33.89° C | 16% | 1011.3 hPa | 0 mm | - | 456 W/m² | - |
| 1777846864 | 33.33° C | 17% | 1011.3 hPa | 0 mm | - | 494 W/m² | - |
| 1777846562 | 32.78° C | 20% | 1011.4 hPa | 0 mm | - | 541 W/m² | - |
| 1777846259 | 32.78° C | 20% | 1011.5 hPa | 0 mm | - | 594 W/m² | - |
| 1777845955 | 32.22° C | 21% | 1011.4 hPa | 0 mm | - | 606 W/m² | - |
| 1777845652 | 32.78° C | 22% | 1011.4 hPa | 0 mm | - | 576 W/m² | - |
| 1777845349 | 32.22° C | 21% | 1011.5 hPa | 0 mm | - | 656 W/m² | - |
| 1777845046 | 31.67° C | 22% | 1011.3 hPa | 0 mm | - | 623 W/m² | - |
| 1777844744 | 32.22° C | 22% | 1011.5 hPa | 0 mm | - | 586 W/m² | - |
| 1777844440 | 32.22° C | 23% | 1011.9 hPa | 0 mm | - | 709 W/m² | - |
| 1777844139 | 32.78° C | 22% | 1012.2 hPa | 0 mm | - | 772 W/m² | - |
| 1777843836 | 31.67° C | 23% | 1012.2 hPa | 0 mm | - | 635 W/m² | - |
| 1777843533 | 31.11° C | 23% | 1012.4 hPa | 0 mm | - | 470 W/m² | - |
| 1777843230 | 31.11° C | 24% | 1012.5 hPa | 0 mm | - | 388 W/m² | - |
| 1777842927 | 31.11° C | 24% | 1012.5 hPa | 0 mm | - | 456 W/m² | - |
| 1777842623 | 30.56° C | 24% | 1012.6 hPa | 0 mm | - | 418 W/m² | - |
| 1777842320 | 30.56° C | 25% | 1012.6 hPa | 0 mm | - | 348 W/m² | - |
| 1777842015 | 30.56° C | 25% | 1012.7 hPa | 0 mm | - | 384 W/m² | - |
| 1777841712 | 31.11° C | 25% | 1012.5 hPa | 0 mm | - | 396 W/m² | - |
| 1777841409 | 31.11° C | 24% | 1012.8 hPa | 0 mm | - | 465 W/m² | - |
| 1777841106 | 30.56° C | 25% | 1012.7 hPa | 0 mm | - | 485 W/m² | - |
| 1777840803 | 30° C | 25% | 1013 hPa | 0 mm | - | 472 W/m² | - |
| 1777840500 | 30° C | 25% | 1012.9 hPa | 0 mm | - | 379 W/m² | - |
| 1777840196 | 30° C | 25% | 1012.9 hPa | 0 mm | - | 390 W/m² | - |
* Rain latest hour (hover to see other rain measurements)
** Current wind speed in m/s (hover to see current wind gust speed)